Vorticity
nan nan nan nan nan nan nan nan nan nan nan nan nan nan nan nan nan nan nan nan nan nan nan nan nan nan nan nan nan nan nan nan nan nan nan nan nan nan nan nan nan nan nan nan nan nan nan nan nan nan nan nan nan nan nan nan nan nan nan nan nan nan nan nan nan nan nan nan nan
nan 9 10 9 7 7 8 9 8 9 11 12 12 12 13 11 9 8 9 10 11 10 9 7 7 8 7 8 10 10 10 9 9 9 8 9 11 12 13 13 13 13 13 11 10 9 9 9 8 8 9 9 9 9 9 10 10 10 10 11 10 8 7 5 7 7 7 7 nan
nan 11 12 11 7 5 5 4 4 6 10 13 16 15 14 11 9 9 9 9 11 11 10 9 7 6 7 8 10 10 10 10 10 10 10 9 10 12 13 13 12 13 13 12 12 12 12 10 9 9 10 11 11 9 8 8 9 8 5 6 9 8 8 6 6 6 6 7 nan
nan 14 15 15 12 8 6 5 5 6 8 10 10 10 11 10 9 9 8 8 8 10 11 11 9 7 7 8 9 10 10 10 11 10 10 9 9 11 12 13 13 13 14 14 13 13 12 11 9 9 10 11 9 8 8 9 9 8 6 5 8 9 9 8 7 8 8 8 nan
nan 15 16 19 21 18 15 14 12 10 8 7 8 9 9 9 9 9 8 8 8 9 11 12 12 9 8 8 8 9 9 9 10 10 9 9 9 10 11 12 13 13 13 13 12 11 10 9 8 9 9 8 8 9 10 11 10 10 9 8 9 9 9 10 9 10 10 11 nan
nan 19 19 19 21 22 20 18 15 13 12 12 13 13 13 11 11 11 11 9 8 8 8 10 11 10 9 8 8 8 8 8 8 9 10 9 9 9 10 11 12 13 13 12 11 10 9 8 8 9 9 8 8 10 12 12 10 10 11 11 10 10 10 11 11 11 12 14 nan
nan 18 18 17 16 18 18 18 15 14 14 13 12 14 15 15 14 13 12 10 8 7 7 7 9 11 10 9 9 9 9 9 8 9 10 10 10 9 10 10 11 12 13 13 12 11 10 9 9 9 9 8 7 8 12 14 13 12 12 12 11 10 10 10 12 12 12 13 nan
nan 12 13 13 13 13 14 15 16 15 15 13 11 11 12 12 12 10 9 9 9 9 9 8 9 11 12 12 10 10 9 9 9 9 10 11 10 10 10 9 10 10 11 13 13 13 13 11 10 10 9 9 9 9 11 14 15 14 12 11 11 11 11 10 12 12 10 9 nan
nan 8 10 10 10 11 11 12 15 16 15 14 12 10 10 10 9 8 8 8 9 10 10 9 8 10 11 12 11 10 9 8 9 10 11 11 11 11 11 10 9 10 10 11 12 13 14 13 12 12 12 13 13 13 12 12 13 12 10 8 11 13 14 13 13 11 9 7 nan
nan 10 10 9 9 10 9 9 10 11 12 11 10 10 9 9 9 9 10 10 9 10 11 10 8 8 8 9 10 10 10 9 9 9 10 11 11 12 13 12 10 10 10 10 10 10 11 12 13 15 15 14 14 13 12 11 11 10 10 10 11 12 13 12 11 10 8 7 nan
nan 12 12 10 8 9 8 7 7 7 8 8 8 8 8 8 9 11 12 12 10 10 11 11 10 9 8 7 8 9 11 11 10 9 9 10 11 12 12 13 12 11 11 11 11 9 10 12 13 13 14 13 10 9 10 11 11 11 13 14 12 10 10 10 10 8 7 7 nan
nan 11 12 11 10 9 9 8 7 6 7 8 8 8 8 8 10 11 11 11 10 9 8 10 10 10 10 8 8 9 10 11 11 10 9 9 9 10 11 11 12 12 12 13 13 13 12 13 12 11 11 11 9 9 10 11 11 11 11 13 11 9 8 9 9 9 8 8 nan
nan 11 11 11 10 10 10 9 8 6 7 8 8 8 8 9 9 10 9 9 9 8 8 9 9 10 11 11 10 10 10 10 10 10 10 9 9 9 10 10 11 11 12 13 15 16 15 12 11 10 9 11 13 12 11 11 10 10 10 10 10 10 9 8 9 10 10 10 nan
nan 12 12 11 11 10 9 9 8 7 7 7 8 8 8 8 9 9 9 9 9 9 9 8 8 10 12 13 12 12 11 10 10 10 10 10 10 10 10 10 11 12 12 13 14 15 15 13 11 9 9 11 13 13 12 11 10 9 9 9 9 9 9 8 9 9 9 9 nan
nan 11 12 12 12 11 9 9 9 7 7 7 9 9 9 8 8 9 10 10 9 9 9 9 9 9 10 12 12 11 11 10 9 9 9 10 11 11 11 11 11 12 13 14 12 12 12 12 10 10 10 10 10 10 10 10 10 10 10 9 8 8 8 9 9 9 9 9 nan
nan 11 12 12 13 12 12 10 10 8 8 9 10 10 10 9 8 9 10 10 9 10 11 11 10 8 7 8 9 9 9 8 8 8 8 9 10 11 11 11 11 12 12 13 12 11 10 10 9 9 10 9 9 9 9 9 9 9 10 9 8 8 8 9 9 10 10 9 nan
nan 10 11 11 12 13 13 13 13 11 10 11 11 11 11 11 10 10 10 11 12 12 12 11 11 10 9 8 8 8 8 9 8 8 8 9 10 10 10 10 10 10 10 11 11 11 10 10 10 9 9 9 8 8 8 8 8 8 8 8 8 8 8 7 8 8 8 8 nan
nan 10 11 11 11 12 13 14 14 13 12 11 12 12 13 13 13 12 11 12 13 13 12 11 11 11 11 11 10 10 10 10 10 10 10 9 9 10 10 10 10 10 10 10 10 10 9 10 10 10 9 9 8 8 8 8 8 7 7 7 7 7 6 6 7 7 7 7 nan
nan 10 10 10 10 11 11 12 12 12 11 11 12 13 14 14 14 13 12 11 12 12 11 10 11 11 11 12 12 12 11 10 10 11 10 9 9 10 10 10 10 10 10 10 9 9 9 9 10 10 11 10 10 9 9 8 8 7 7 6 6 6 7 7 8 8 9 7 nan
nan 10 10 10 10 10 10 10 11 11 11 11 12 13 13 13 13 13 12 11 11 11 10 10 10 10 10 10 11 11 10 8 9 9 9 9 10 11 11 11 10 10 9 9 9 9 9 9 9 10 10 11 10 9 9 8 8 8 7 6 7 7 8 8 9 10 10 9 nan
nan 9 9 10 10 10 10 10 10 10 11 11 11 11 12 12 11 11 11 11 10 9 9 9 9 10 10 9 9 10 10 9 9 9 9 9 10 10 10 9 9 8 8 7 7 7 7 8 8 8 8 8 8 9 9 9 8 8 8 8 8 9 9 9 9 9 10 9 nan
nan 9 9 9 10 11 11 10 10 10 10 10 10 10 11 11 10 10 9 9 9 9 9 9 9 9 9 9 9 10 11 11 10 9 9 9 9 8 8 8 8 8 7 6 6 6 7 7 7 8 7 7 8 9 9 9 8 8 8 9 9 9 9 9 8 8 8 8 nan
nan 10 9 8 9 10 11 11 10 10 10 9 9 10 10 10 10 10 10 9 9 10 10 9 9 9 10 10 10 10 11 11 10 10 9 9 8 8 8 7 7 7 8 7 9 9 9 7 7 7 7 7 7 7 7 8 7 7 7 7 7 7 7 8 7 7 7 7 nan
nan 12 12 9 8 10 10 10 10 10 9 9 9 9 9 10 10 11 11 10 10 10 11 11 10 9 8 9 9 9 9 9 9 9 9 9 8 8 8 8 8 8 9 12 16 18 17 13 10 8 7 7 7 7 7 7 7 7 7 6 6 7 7 8 8 8 7 8 nan
nan 11 12 12 10 11 11 11 10 10 9 9 9 8 9 9 10 10 10 10 9 9 9 10 9 8 7 6 7 7 7 7 7 8 8 9 10 10 10 9 9 10 12 17 20 21 20 20 18 13 10 8 8 8 8 8 8 8 8 7 6 6 7 7 8 8 7 7 nan
nan 10 10 11 11 11 11 10 10 10 10 10 10 10 9 9 9 9 9 9 8 7 7 7 7 8 7 6 7 7 7 6 7 9 9 10 11 11 12 11 10 12 14 18 17 15 16 18 19 18 14 10 8 8 8 7 8 9 9 8 8 8 8 7 7 7 7 6 nan
nan 10 10 10 10 10 10 10 10 10 10 11 11 11 11 11 10 10 10 10 9 7 6 6 6 6 5 6 8 8 9 9 8 9 9 10 10 11 11 11 12 14 16 16 13 11 11 11 12 15 16 14 9 8 8 7 7 8 9 9 10 10 10 9 8 8 7 7 nan
nan 10 10 10 10 10 10 11 10 10 11 11 11 11 11 11 11 11 10 10 10 9 8 7 6 6 6 8 8 9 9 10 9 8 8 9 9 10 10 11 12 14 15 13 11 10 9 8 8 10 14 16 11 8 7 7 7 7 8 8 9 9 10 11 10 9 9 9 nan
nan 10 10 10 10 10 10 11 11 10 10 10 10 11 11 10 10 9 9 9 11 12 12 10 10 10 11 11 9 8 8 8 9 9 9 9 9 9 9 10 10 10 10 10 10 10 10 9 8 8 10 15 15 11 9 8 8 8 8 8 8 8 10 11 11 12 12 11 nan
nan 9 9 10 10 10 10 10 11 11 11 10 9 10 9 9 8 8 8 8 10 12 14 14 15 16 15 12 9 8 8 8 9 9 9 9 8 8 8 9 9 8 6 8 10 10 10 10 9 8 8 12 15 14 11 10 10 9 9 9 8 9 9 9 10 11 13 13 nan
nan 9 9 9 9 9 9 10 11 11 12 11 9 9 8 8 8 9 9 9 9 11 13 15 17 17 16 12 10 10 9 9 10 9 9 7 6 6 7 8 9 8 7 7 9 9 9 9 9 8 8 9 12 12 11 10 10 10 10 9 9 9 9 9 8 9 11 13 nan
nan 9 9 8 8 8 8 9 10 10 10 11 10 9 8 9 9 10 10 10 9 9 11 13 14 14 13 12 11 10 10 10 10 9 9 7 6 6 6 6 7 8 8 8 9 8 8 8 8 8 8 8 10 11 11 10 9 9 9 8 8 9 10 10 9 9 10 12 nan
nan 10 9 8 8 7 8 8 8 8 9 9 9 9 9 10 11 10 11 11 10 8 8 9 9 10 11 11 10 9 9 8 7 7 7 6 7 7 7 6 6 7 9 8 8 8 8 8 8 8 7 8 8 8 9 9 8 8 8 8 8 8 9 10 10 10 10 13 nan
nan 9 9 8 8 8 7 7 7 7 8 8 8 9 10 10 11 11 12 11 10 8 7 7 7 9 10 12 12 11 9 8 7 6 7 7 8 9 9 9 9 8 9 9 9 9 9 8 8 8 7 5 6 7 9 10 9 9 9 8 8 8 9 9 10 10 10 12 nan
nan 9 9 9 9 9 8 8 8 7 7 7 7 8 9 9 9 11 11 12 11 9 8 8 9 10 12 14 14 12 10 9 9 9 9 10 9 9 9 10 10 8 8 9 10 10 10 10 9 8 6 3 5 7 9 9 9 9 9 8 8 8 9 9 9 9 9 10 nan
nan 9 9 9 9 9 9 9 9 8 8 7 7 8 9 9 9 9 9 11 12 11 10 9 11 12 13 13 12 10 8 7 8 9 10 10 9 7 7 7 6 5 6 9 11 12 13 12 11 9 6 4 6 8 9 8 8 8 8 8 8 8 8 8 8 8 8 8 nan
nan 10 9 9 9 9 9 9 9 9 8 8 8 8 9 10 10 9 9 10 11 11 11 11 12 12 12 11 10 9 8 8 8 9 9 8 7 6 6 6 4 3 4 8 10 12 13 14 13 10 8 7 9 9 10 9 9 8 8 8 8 7 7 6 6 6 7 8 nan
nan 10 10 9 9 9 10 10 9 8 8 8 8 9 9 10 11 11 10 10 10 11 11 12 13 13 13 12 11 10 10 11 11 10 9 8 8 8 7 7 6 5 5 7 9 11 12 13 13 12 12 12 11 11 11 11 10 10 9 8 8 8 8 7 6 6 6 7 nan
nan 8 9 9 9 10 10 10 9 8 7 8 8 9 10 11 12 12 11 11 10 11 11 12 12 13 13 13 11 11 11 13 13 12 10 9 10 10 10 9 8 7 7 8 10 10 10 11 12 12 13 14 13 11 11 12 11 11 10 9 9 9 9 8 8 7 6 5 nan
nan 7 8 8 9 9 9 9 9 8 8 7 8 8 10 11 12 12 12 11 11 11 11 11 12 12 13 11 10 10 11 12 12 11 10 9 9 9 9 8 8 6 5 6 9 10 10 10 11 12 13 13 12 12 11 11 11 10 11 10 10 9 9 9 9 9 8 5 nan
nan nan nan nan nan nan nan nan nan nan nan nan nan nan nan nan nan nan nan nan nan nan nan nan nan nan nan nan nan nan nan nan nan nan nan nan nan nan nan nan nan nan nan nan nan nan nan nan nan nan nan nan nan nan nan nan nan nan nan nan nan nan nan nan nan nan nan nan nan
CAPE
13 39 39 40 40 40 13 6 5 5 nan nan nan nan nan nan nan nan nan nan nan nan nan nan nan 0 0 0 0 0 0 nan nan nan nan nan nan nan nan nan nan nan nan nan nan nan nan nan nan nan nan nan nan nan nan nan nan nan nan nan nan nan nan nan nan nan nan nan nan
18 37 37 39 20 20 8 3 0 0 nan nan nan nan nan nan nan nan nan nan nan nan nan nan nan 0 0 nan 0 0 0 0 nan nan nan nan nan nan nan nan nan nan nan nan nan nan nan nan nan nan nan nan nan nan nan nan nan nan nan nan nan nan nan nan nan nan nan nan nan
31 41 41 31 10 10 8 18 nan nan nan nan nan nan nan nan nan nan nan nan nan nan nan 0 0 0 0 0 0 0 0 0 nan 0 0 0 nan nan nan nan nan nan nan nan nan nan nan nan nan nan nan nan nan nan nan nan nan nan nan nan nan nan nan nan nan nan nan nan nan
49 52 52 34 17 17 11 20 2 2 nan nan nan nan nan nan nan nan nan nan nan 0 0 0 0 0 0 0 0 0 nan nan 0 0 0 0 0 nan nan nan nan nan nan nan nan nan nan nan nan nan nan nan nan nan nan nan nan nan nan nan nan nan nan nan nan nan nan nan nan
18 48 48 28 16 16 nan 1 0 0 nan nan nan nan nan nan nan nan nan nan nan 1 1 0 0 0 0 nan nan nan nan nan 0 0 0 0 0 nan nan nan nan nan nan nan nan nan nan nan nan nan nan nan nan nan nan nan nan nan nan nan nan nan nan 0 0 0 0 nan nan
nan nan nan nan nan nan nan nan nan nan nan nan nan nan nan nan nan nan nan 0 0 0 0 0 1 0 0 nan nan nan nan nan nan 0 0 0 nan nan nan nan nan nan nan nan nan nan nan nan nan nan nan nan nan nan nan nan nan nan nan nan nan nan nan 0 0 0 nan nan nan
nan nan nan nan nan nan nan nan nan nan nan nan nan nan nan nan nan 0 0 0 0 0 0 0 0 0 0 nan nan nan nan nan 0 nan nan 0 nan nan nan nan nan nan nan nan nan nan nan nan nan nan nan nan nan nan nan nan nan nan nan nan nan nan nan 0 nan nan nan nan nan
nan nan nan nan nan nan nan nan nan nan nan nan nan nan nan nan nan nan nan nan nan 0 0 0 0 0 0 0 nan nan nan nan nan nan nan 0 nan nan nan nan nan nan nan nan nan nan nan nan nan nan nan nan nan nan nan nan nan nan nan nan nan nan nan nan nan nan nan nan nan
nan nan nan nan nan nan nan nan nan nan nan nan nan nan nan nan nan nan nan nan 0 nan nan nan nan nan nan nan 0 0 0 0 0 0 0 0 nan nan nan nan nan nan nan nan nan nan nan nan nan nan nan nan nan nan nan nan nan nan nan nan nan nan nan nan nan nan nan nan nan
nan nan nan nan nan nan nan nan nan nan nan nan nan nan nan 0 nan nan nan nan nan nan nan nan nan nan nan nan nan nan 0 nan 0 nan nan 0 0 nan nan nan nan nan nan nan nan nan nan nan nan nan nan nan nan nan nan nan nan nan nan nan nan nan nan nan nan nan nan nan nan
nan nan nan nan nan nan nan nan nan nan nan nan nan nan nan nan nan nan nan nan nan nan nan nan nan nan nan nan nan nan nan nan nan nan nan nan nan nan nan nan nan nan nan nan nan nan nan nan nan nan nan nan nan nan nan nan nan nan nan nan nan nan nan nan nan nan nan nan nan
nan nan nan nan nan nan nan nan nan nan nan nan nan nan nan nan nan nan nan nan nan nan nan nan nan nan nan nan nan nan nan nan nan nan nan nan nan nan nan nan nan nan nan nan nan nan nan nan nan nan nan nan nan nan nan nan nan nan nan nan nan nan nan nan nan nan nan nan nan
nan nan nan nan nan nan nan nan nan nan nan nan nan nan nan nan nan nan nan nan nan nan nan nan nan nan nan nan nan nan nan nan nan nan nan nan nan nan nan nan nan nan nan nan nan nan nan nan nan nan nan nan nan nan nan nan nan nan nan nan nan nan nan nan nan nan nan nan nan
nan nan nan nan nan nan nan nan nan nan nan nan nan nan nan nan nan nan nan nan nan nan nan nan nan nan nan nan nan nan nan nan nan nan nan nan nan nan nan nan nan nan nan nan nan nan nan nan nan nan nan nan nan nan nan nan nan nan nan nan nan nan nan nan nan nan nan nan nan
nan nan nan nan nan nan nan nan nan nan nan nan nan nan nan nan nan nan nan nan nan nan nan nan nan nan nan nan nan nan nan nan nan nan nan nan nan nan nan nan nan nan nan nan nan nan nan nan nan nan nan nan nan nan nan nan nan nan nan nan nan nan nan nan nan nan nan nan nan
nan nan nan nan nan nan nan nan nan nan nan nan nan nan nan nan nan nan nan nan nan nan nan nan nan nan nan nan nan nan nan nan nan nan nan nan nan nan nan nan nan nan nan nan nan nan nan nan nan nan nan nan nan nan nan nan nan nan nan nan nan nan nan nan nan nan nan nan nan
nan nan nan nan nan nan nan nan nan nan nan nan nan nan nan nan nan nan nan nan nan nan nan nan nan nan nan nan nan nan nan nan nan nan nan nan nan nan nan nan nan nan nan nan nan nan nan nan nan nan nan nan nan nan nan nan nan nan nan nan nan nan nan nan nan nan nan nan nan
nan nan nan nan nan nan nan nan nan nan nan nan nan nan nan nan nan nan nan nan nan nan nan nan nan nan nan nan nan nan nan nan nan nan nan nan nan nan nan nan nan nan nan nan nan nan nan nan nan nan nan nan nan nan nan nan nan nan nan nan nan nan nan nan nan nan nan nan nan
nan nan nan nan nan nan nan nan nan nan nan nan nan nan nan nan nan nan nan nan nan nan nan nan nan nan nan nan nan nan nan nan nan nan nan nan nan nan nan nan nan nan nan nan nan nan nan nan nan nan nan nan nan nan nan nan nan nan nan nan nan nan nan nan nan nan nan nan nan
nan nan nan nan nan nan nan nan nan nan nan nan nan nan nan nan nan nan nan nan nan nan nan nan nan nan nan nan nan nan nan nan nan nan nan nan nan nan nan nan nan nan nan nan nan nan nan nan nan nan nan nan nan nan nan nan nan nan nan nan nan nan nan nan nan nan nan nan nan
nan nan nan nan nan nan nan nan nan nan nan nan nan nan nan nan nan nan nan nan nan nan nan nan nan nan nan nan nan nan nan nan nan nan nan nan nan nan nan nan nan nan nan nan nan nan nan nan nan nan nan nan nan nan nan nan nan nan nan nan nan nan nan nan nan nan nan nan nan
nan nan nan nan nan nan nan nan nan nan nan nan nan nan nan nan nan nan nan nan nan nan nan nan nan nan nan nan nan nan nan nan nan nan nan nan nan nan nan nan nan nan nan nan nan nan nan nan nan nan nan nan nan nan nan nan nan nan nan nan nan nan nan nan nan nan nan nan nan
nan nan nan nan nan nan nan nan nan nan nan nan nan nan nan nan nan nan nan nan nan nan nan nan nan nan nan nan nan nan nan nan nan nan nan nan nan nan nan nan nan nan nan nan nan nan nan nan nan nan nan nan nan nan nan nan nan nan nan nan nan nan nan nan nan nan nan nan nan
nan nan nan nan nan nan nan nan nan nan nan nan nan nan nan nan nan nan nan nan nan nan nan nan nan nan nan nan nan nan nan nan nan nan nan nan nan nan nan nan nan nan nan nan nan nan nan nan nan nan nan nan nan nan nan nan nan nan nan nan nan nan nan nan nan nan nan nan nan
nan nan nan nan nan nan nan nan nan nan nan nan nan nan nan nan nan nan nan nan nan nan nan nan nan nan nan nan nan nan nan nan nan nan nan nan nan nan nan nan nan nan nan nan nan nan nan nan nan nan nan nan nan nan nan nan nan nan nan nan nan nan nan nan nan nan nan nan nan
nan nan nan nan nan nan nan nan nan nan nan nan nan nan nan nan nan nan nan nan nan nan nan nan nan nan nan nan nan nan nan nan nan nan nan nan nan nan nan nan nan nan nan nan nan nan nan nan nan nan nan nan nan nan nan nan nan nan nan nan nan nan nan nan nan nan nan nan nan
nan nan nan nan nan nan nan nan nan nan nan nan nan nan nan nan nan nan nan nan nan nan nan nan nan nan nan nan nan nan nan nan nan nan nan nan nan nan nan nan nan nan nan 0 0 0 nan nan nan nan nan nan nan nan nan nan nan nan nan nan nan nan nan nan nan nan nan nan nan
nan nan nan nan nan nan nan nan nan nan nan nan nan nan nan nan nan nan nan nan nan nan nan nan nan nan nan nan nan nan nan nan nan nan nan nan nan nan nan nan nan nan nan 3 1 1 0 nan nan nan nan nan nan nan nan nan nan nan nan nan nan nan nan nan nan nan nan nan nan
nan nan nan nan nan nan nan nan nan nan nan nan nan nan nan nan nan nan nan nan nan nan nan nan nan nan nan nan nan nan nan nan nan nan nan nan nan nan nan nan nan 1 1 5 3 3 1 0 nan nan nan nan nan nan nan nan nan nan nan nan nan nan nan nan nan nan nan nan nan
nan nan nan nan nan nan nan nan nan nan nan nan nan nan nan nan nan nan nan nan nan nan nan nan nan nan nan nan nan nan nan nan nan nan nan nan nan nan nan nan nan 0 0 4 3 3 2 1 nan nan nan nan nan nan nan nan nan nan nan nan nan nan nan nan nan nan nan nan nan
nan nan nan nan nan nan nan nan nan nan nan nan nan nan nan nan nan nan nan nan nan nan nan nan nan nan nan nan nan nan nan nan nan nan nan nan nan nan nan nan nan 0 0 3 3 3 2 1 nan nan nan nan nan nan nan nan nan nan nan nan nan nan nan nan nan nan nan nan nan
nan nan nan nan nan nan nan nan nan nan nan nan nan nan nan nan nan nan nan nan nan nan nan nan nan nan nan nan nan nan nan nan nan nan nan nan nan nan nan nan nan nan nan 3 3 3 2 2 0 0 nan nan nan nan nan nan nan nan nan nan nan nan nan nan nan nan nan nan nan
nan nan nan nan nan nan nan nan nan nan nan nan nan nan nan nan nan nan nan nan nan nan nan nan nan nan nan nan nan nan nan nan nan nan nan nan nan nan nan nan nan 2 2 6 5 5 3 3 1 1 nan nan nan nan nan nan nan nan nan nan nan nan nan nan nan nan nan nan nan
nan nan nan nan nan nan nan nan nan nan nan nan nan nan nan nan nan nan nan nan nan nan nan nan nan nan nan nan nan nan nan nan nan nan nan nan nan nan nan nan nan 8 8 9 8 8 6 3 1 1 nan nan nan nan nan nan nan nan nan nan nan nan nan nan nan nan nan nan nan
nan nan nan nan nan nan nan nan nan nan nan nan nan nan nan nan nan nan nan nan nan nan nan nan nan nan nan nan nan nan nan nan nan nan nan nan nan nan nan nan nan 13 13 13 10 10 7 5 2 2 0 nan nan nan nan nan nan nan nan nan nan nan nan nan nan nan nan nan nan
nan nan nan nan nan nan nan nan nan nan nan nan nan nan nan nan nan nan nan nan nan nan nan nan nan nan nan nan nan nan nan nan nan nan nan nan nan nan nan nan 0 10 10 12 10 10 8 6 3 3 1 nan nan nan nan nan nan nan nan nan nan nan nan nan nan nan nan nan nan
nan nan nan nan nan nan nan nan nan nan nan nan nan nan nan nan nan nan nan nan nan nan nan nan nan nan nan nan nan nan nan nan nan nan nan nan nan nan nan nan nan 6 6 12 11 11 10 7 4 4 3 nan nan nan nan nan nan nan nan nan nan nan nan nan nan nan nan nan nan
nan nan nan nan nan nan nan nan nan nan nan nan nan nan nan nan nan nan nan nan nan nan nan nan nan nan nan nan nan nan nan nan nan nan nan nan nan nan nan nan nan 3 3 16 13 13 10 8 6 6 1 nan nan nan nan nan nan nan nan nan nan nan nan nan nan nan nan nan nan
nan nan nan nan nan nan nan nan nan nan nan nan nan nan nan nan nan nan nan 0 nan nan nan nan nan nan nan nan nan nan nan nan 0 nan nan 0 2 1 1 nan nan 2 2 23 16 16 10 9 8 8 4 nan nan nan nan nan nan nan nan nan nan nan nan nan nan nan nan nan nan
nan nan nan nan nan nan nan nan nan nan nan nan nan nan nan nan nan nan nan nan nan nan nan nan nan nan nan nan nan nan nan nan nan 7 7 5 8 8 8 nan nan 2 2 30 22 22 11 9 8 8 3 nan nan nan nan nan nan nan nan nan nan nan nan nan nan nan nan nan nan
nan nan nan nan nan nan nan nan nan nan nan nan nan nan nan nan nan nan nan nan nan nan nan nan nan nan nan nan nan nan nan nan nan nan nan nan nan nan nan nan nan nan nan 25 27 27 14 10 8 8 3 nan nan nan nan nan nan nan nan nan nan nan nan nan nan nan nan nan nan